Minot, ND

6:27 AM CDT on July 25, 2017 (GMT -0500)
Minot International

Weather History for KMOT - November, 2013

Change the Weather History Date:

Friday, November 8, 2013

  Actual Average Record
Temperature  
Mean Temperature 36 °F 33 °F  
Max Temperature 44 °F 41 °F 73 °F (1999)
Min Temperature 27 °F 24 °F -7 °F (1919)
Degree Days  
Heating Degree Days 29 32  
Month to date heating degree days 244 243  
Since 1 July heating degree days 1137 1203  
Moisture  
Dew Point 31 °F    
Average Humidity 72    
Maximum Humidity 85    
Minimum Humidity 58    
Precipitation  
Precipitation T in 0.03 in 1.71 in (1986)
Month to date precipitation 0.01 0.23  
Year to date precipitation 24.67 16.29  
Sea Level Pressure  
Sea Level Pressure 29.69 in    
Wind  
Wind Speed 12 mph (WSW)    
Max Wind Speed 29 mph    
Max Gust Speed 38 mph    
Visibility 10 miles    
Events Rain , Snow    
T = Trace of Precipitation, MM = Missing Value Source: NWS Daily Summary

Daily Weather History Graph

Daily Weather History Graph

Search for Another Location

Airport or City:

Trip Planner

Search our weather history database for the weather conditions in past years. The results will help you decide how hot, cold, wet, or windy it might be!

Date:

Astronomy

Nov. 08, 2013 Rise Set
Actual Time 7:41 AM CST 5:15 PM CST
Civil Twilight 7:08 AM CST 5:48 PM CST
Nautical Twilight 6:31 AM CST 6:25 PM CST
Astronomical Twilight 5:54 AM CST 7:02 PM CST
Moon 12:39 PM CST (11/8) 10:39 PM CST (11/8)
Length of Visible Light 10h 39m
Length of Day
9h 33m
Waxing Crescent, 33% of the Moon is Illuminated
Nov 8
Waxing Crescent
Nov 9
First Quarter
Nov 17
Full
Nov 25
Last Quarter
Dec 2
New

Hourly Weather History & Observations

Time (CST) Temp. Windchill Dew Point Humidity Pressure Visibility Wind Dir Wind Speed Gust Speed Precip Events Conditions
12:54 AM 30.0 °F 23.2 °F 21.9 °F 72% 29.97 in 10.0 mi SE 6.9 mph - N/A   Overcast
1:54 AM 30.9 °F 24.3 °F 23.0 °F 72% 29.91 in 10.0 mi ESE 6.9 mph - N/A   Overcast
2:54 AM 34.0 °F 27.2 °F 23.0 °F 64% 29.86 in 10.0 mi SE 8.1 mph - N/A   Overcast
3:54 AM 35.1 °F 26.9 °F 24.1 °F 64% 29.80 in 10.0 mi ESE 11.5 mph - N/A   Overcast
4:54 AM 34.0 °F 24.6 °F 24.1 °F 67% 29.78 in 10.0 mi ESE 13.8 mph - N/A   Overcast
5:54 AM 35.1 °F 27.4 °F 25.0 °F 67% 29.75 in 10.0 mi ESE 10.4 mph - N/A   Overcast
6:54 AM 35.1 °F 26.4 °F 25.0 °F 67% 29.70 in 10.0 mi East 12.7 mph - N/A   Overcast
7:54 AM 36.0 °F 26.3 °F 26.1 °F 67% 29.67 in 10.0 mi ESE 16.1 mph - N/A   Overcast
8:54 AM 36.0 °F 26.7 °F 27.0 °F 70% 29.65 in 10.0 mi ESE 15.0 mph - 0.00 in   Overcast
9:54 AM 36.0 °F 28.0 °F 28.9 °F 76% 29.64 in 10.0 mi ESE 11.5 mph - 0.00 in   Overcast
10:54 AM 37.9 °F - 30.9 °F 76% 29.64 in 10.0 mi Calm Calm - N/A   Overcast
11:54 AM 41.0 °F 36.4 °F 30.0 °F 65% 29.60 in 10.0 mi South 6.9 mph - N/A   Overcast
12:29 PM 42.1 °F 37.7 °F 30.0 °F 62% 29.54 in 10.0 mi South 6.9 mph - N/A   Overcast
12:54 PM 42.1 °F 38.4 °F 30.9 °F 65% 29.58 in 10.0 mi SSW 5.8 mph - N/A   Overcast
1:54 PM 44.1 °F 38.6 °F 30.9 °F 60% 29.57 in 10.0 mi West 10.4 mph - N/A   Overcast
2:54 PM 43.0 °F 36.0 °F 34.0 °F 71% 29.59 in 10.0 mi West 13.8 mph - N/A   Overcast
3:35 PM 42.1 °F 36.6 °F 35.1 °F 76% 29.55 in 10.0 mi West 9.2 mph - N/A   Overcast
3:54 PM 42.1 °F 36.1 °F 35.1 °F 76% 29.60 in 10.0 mi WNW 10.4 mph - N/A   Overcast
4:54 PM 41.0 °F 35.2 °F 36.0 °F 82% 29.63 in 8.0 mi WNW 9.2 mph - N/A   Overcast
5:15 PM 39.0 °F 34.8 °F 35.1 °F 86% 29.57 in 10.0 mi WNW 5.8 mph - N/A   Mostly Cloudy
5:54 PM 39.9 °F 35.8 °F 36.0 °F 86% 29.63 in 10.0 mi West 5.8 mph - N/A   Overcast
6:54 PM 41.0 °F 35.2 °F 36.0 °F 82% 29.66 in 10.0 mi West 9.2 mph - N/A   Overcast
7:08 PM 41.0 °F 35.8 °F 36.0 °F 82% 29.61 in 10.0 mi WNW 8.1 mph - N/A   Overcast
7:54 PM 41.0 °F 33.5 °F 36.0 °F 82% 29.68 in 10.0 mi WNW 13.8 mph - N/A   Overcast
8:22 PM 39.9 °F 29.7 °F 35.1 °F 83% 29.65 in 10.0 mi West 23.0 mph 29.9 mph N/A   Overcast
8:31 PM 39.0 °F 29.0 °F 34.0 °F 82% 29.66 in 9.0 mi WNW 20.7 mph 36.8 mph 0.00 in Rain Light Rain
8:54 PM 37.9 °F 28.2 °F 33.1 °F 83% 29.72 in 10.0 mi West 18.4 mph 31.1 mph 0.00 in   Overcast
9:02 PM 37.9 °F 26.3 °F 33.1 °F 83% 29.67 in 10.0 mi West 26.5 mph 32.2 mph N/A   Overcast
9:54 PM 37.9 °F 26.6 °F 30.9 °F 76% 29.75 in 9.0 mi West 25.3 mph 34.5 mph 0.00 in   Overcast
10:03 PM 37.9 °F 27.3 °F 30.9 °F 76% 29.70 in 9.0 mi West 21.9 mph 34.5 mph 0.00 in Snow Light Snow
10:43 PM 37.0 °F 24.7 °F 30.9 °F 79% 29.72 in 9.0 mi WNW 28.8 mph 34.5 mph 0.00 in Snow Light Snow
10:54 PM 37.0 °F 25.6 °F 30.9 °F 79% 29.77 in 9.0 mi WNW 24.2 mph 34.5 mph 0.00 in Snow Light Snow
11:54 PM 36.0 °F 25.0 °F 30.0 °F 79% 29.81 in 10.0 mi WNW 20.7 mph 26.5 mph 0.00 in   Overcast